Jaffrey, NH

9:10 AM EDT on August 23, 2017 (GMT -0400)
Jaffrey Airport-Silver Ranch

Weather History for KAFN - July, 2013

Change the Weather History Date:

Saturday, July 13, 2013

  Actual Average Record
Temperature  
Mean Temperature 67 °F -  
Max Temperature 75 °F 75 °F 91 °F (2012)
Min Temperature 61 °F 55 °F 48 °F (2000)
Cooling Degree Days 2    
Growing Degree Days 17 (Base 50)    
Moisture  
Dew Point 63 °F    
Average Humidity 86    
Maximum Humidity 94    
Minimum Humidity 73    
Precipitation  
Precipitation 0.00 in - - ()
Sea Level Pressure  
Sea Level Pressure 30.32 in    
Wind  
Wind Speed 1 mph (South)    
Max Wind Speed 6 mph    
Max Gust Speed -    
Visibility 9 miles    
Events Rain    
Averages and records for this station are not official NWS values.
T = Trace of Precipitation, MM = Missing Value Source: NWS Daily Summary

Daily Weather History Graph

Daily Weather History Graph

Search for Another Location

Airport or City:

Trip Planner

Search our weather history database for the weather conditions in past years. The results will help you decide how hot, cold, wet, or windy it might be!

Date:

Astronomy

Jul. 13, 2013 Rise Set
Actual Time 5:21 AM EDT 8:25 PM EDT
Civil Twilight 4:47 AM EDT 8:59 PM EDT
Nautical Twilight 4:03 AM EDT 9:43 PM EDT
Astronomical Twilight 3:11 AM EDT 10:34 PM EDT
Moon 10:43 AM EDT (7/13) 10:55 PM EDT (7/13)
Length of Visible Light 16h 12m
Length of Day
15h 03m
Waxing Crescent, 25% of the Moon is Illuminated
Jul 13
Waxing Crescent
Jul 15
First Quarter
Jul 22
Full
Jul 29
Last Quarter
Aug 6
New

Hourly Weather History & Observations

Time (EDT) Temp. Dew Point Humidity Pressure Visibility Wind Dir Wind Speed Gust Speed Precip Events Conditions
12:52 AM 62.1 °F 57.0 °F 84% 30.25 in 10.0 mi Calm Calm - N/A   Partly Cloudy
1:52 AM 62.1 °F 57.0 °F 84% 30.26 in 10.0 mi Calm Calm - N/A   Mostly Cloudy
2:52 AM 61.0 °F 57.0 °F 87% 30.26 in 10.0 mi Calm Calm - N/A   Mostly Cloudy
3:52 AM 61.0 °F 57.0 °F 87% 30.27 in 10.0 mi Calm Calm - N/A   Overcast
4:52 AM 61.0 °F 57.0 °F 87% 30.28 in 10.0 mi Variable 3.5 mph - N/A   Overcast
5:52 AM 62.1 °F 57.0 °F 84% 30.30 in 10.0 mi Calm Calm - N/A   Overcast
6:52 AM 63.0 °F 57.0 °F 81% 30.31 in 10.0 mi Calm Calm - N/A   Overcast
7:52 AM 64.0 °F 57.0 °F 78% 30.32 in 10.0 mi Calm Calm - N/A   Overcast
8:52 AM 66.9 °F 57.9 °F 73% 30.33 in 10.0 mi Calm Calm - N/A   Overcast
9:52 AM - - N/A% 30.32 in 10.0 mi Variable 3.5 mph - N/A   Overcast
10:19 AM - - N/A% 30.33 in 10.0 mi Variable 5.8 mph - N/A   Overcast
10:52 AM - - N/A% 30.34 in 10.0 mi Calm Calm - N/A   Overcast
11:52 AM - - N/A% 30.33 in 10.0 mi Variable 3.5 mph - N/A   Overcast
12:34 PM - - N/A% 30.34 in 10.0 mi Calm Calm - N/A   Overcast
12:52 PM - - N/A% 30.34 in 5.0 mi SSE 3.5 mph - 0.00 in Rain Light Rain
1:48 PM - - N/A% 30.34 in 10.0 mi Variable 3.5 mph - 0.00 in   Overcast
1:52 PM - - N/A% 30.34 in 10.0 mi Calm Calm - 0.00 in   Overcast
2:52 PM 72.0 °F 64.9 °F 78% 30.35 in 10.0 mi Calm Calm - N/A   Overcast
3:52 PM 72.0 °F 66.0 °F 81% 30.34 in 10.0 mi Calm Calm - N/A   Overcast
4:09 PM 73.4 °F 66.2 °F 78% 30.33 in 10.0 mi Calm Calm - N/A   Overcast
4:52 PM 73.0 °F 66.0 °F 79% 30.33 in 10.0 mi Calm Calm - N/A   Overcast
5:52 PM 73.9 °F 66.9 °F 79% 30.32 in 10.0 mi Calm Calm - N/A   Overcast
6:52 PM 73.0 °F 68.0 °F 84% 30.33 in 10.0 mi Variable 3.5 mph - N/A   Overcast
7:52 PM 72.0 °F 68.0 °F 87% 30.34 in 10.0 mi SSE 3.5 mph - N/A   Overcast
8:34 PM 71.6 °F 68.0 °F 88% 30.34 in 10.0 mi South 3.5 mph - N/A   Overcast
8:52 PM 71.1 °F 68.0 °F 90% 30.34 in 10.0 mi South 5.8 mph - N/A   Overcast
9:52 PM 70.0 °F 68.0 °F 93% 30.34 in 8.0 mi SSW 3.5 mph - N/A   Scattered Clouds
10:11 PM 69.8 °F 68.0 °F 94% 30.33 in 8.0 mi Calm Calm - N/A   Scattered Clouds
10:52 PM 69.1 °F 66.9 °F 93% 30.34 in 5.0 mi Calm Calm - N/A   Clear
11:12 PM 68.0 °F 66.2 °F 94% 30.34 in 4.0 mi Calm Calm - N/A   Mostly Cloudy
11:22 PM 68.0 °F 66.2 °F 94% 30.34 in 5.0 mi Calm Calm - N/A   Overcast
11:42 PM 69.8 °F 66.2 °F 88% 30.34 in 6.0 mi Calm Calm - N/A   Overcast
11:52 PM 69.1 °F 66.9 °F 93% 30.34 in 6.0 mi Calm Calm - N/A   Overcast